Location: Barcelona
(41.3830°N, 2.1830°E)
Time: 00:33:53
(UTC+01:00)

ISS - Pass Details

Date: 23 February 2020
Orbit: 415 x 422 km, 51.6° (Epoch: 27 February)

Event Time Altitude Azimuth Distance (km) Brightness Sun altitude
Exits shadow 05:54:49 20° 181° (S) 1,032 -1.9 -19.7°
Maximum altitude 05:56:22 29° 136° (SE) 790 -2.0 -19.4°
Drops below altitude 10° 05:59:22 10° 73° (ENE) 1,503 0.2 -18.8°
Sets 06:01:37 0° 63° (ENE) 2,372 1.3 -18.4°
